Flag for United Kingdom Weather past 2 weeks in Worcester, England, United Kingdom

Now
51 °F

Cool.


Feels Like: 47 °F
Forecast: 37 / 53 °F
Wind: 12 mph from Southwest

Location: Pershore

Current Time: Apr 27, 2015 at 6:22:21 PM

Latest Report: Apr 27, 2015 at 5:00 PM


Visibility: 25 mi

Pressure: 29.88 "Hg

Humidity: 51%

Dew point: 33 °F

Location of WorcesterLocation

Historic Weather in Worcester — Graph

°F

Worcester temperature yesterday

Maximum temperature yesterday: 57 °F (at 3:00 PM)
Minimum temperature yesterday: 40 °F (at 11:00 PM)
Average temperature yesterday: 47 °F

Past Weeks' High & Low Weather Summary

 TemperatureHumidityPressure
High69 °F (Apr 15, 3:00 PM)100% (Apr 13, 5:00 AM)30.61 "Hg (Apr 13, 5:00 AM)
Low29 °F (Apr 27, 6:00 AM)32% (Apr 15, 5:00 PM)29.65 "Hg (Apr 25, 5:00 PM)
Average50 °F75%30.18 "Hg
* Reported Apr 12 5:00 PM — Apr 27 5:00 PM, Worcester, Weather by CustomWeather, © 2015

Note: Actual official high and low records may vary slightly from our data, if they occured in-between our weather recording intervals... More about our weather records

Advertising

Worcester weather history for previous 24 hours

 ConditionsComfort  
Time TempWeatherWind HumidityBarometerVisibility
5:00 PM
Mon, Apr 27
51 °FCool.12 mph51%29.88 "Hg25 mi
4:00 PM50 °FCool.8 mph45%29.88 "Hg25 mi
3:00 PM52 °FCool.3 mph42%29.88 "Hg22 mi
2:00 PM51 °FCool.5 mph39%29.90 "Hg22 mi
1:00 PM50 °FCool.5 mph45%29.90 "Hg22 mi
12:00 PM51 °FCool.6 mph48%29.92 "Hg25 mi
11:00 AM48 °FCool.2 mph50%29.92 "Hg25 mi
10:00 AM46 °FCool.3 mph62%29.93 "Hg11 mi
9:00 AM44 °FQuite cool.2 mph75%29.92 "Hg17 mi
8:00 AM38 °FChilly.2 mph87%29.92 "Hg19 mi
7:00 AM31 °FChilly.2 mph98%29.92 "Hg11 mi
6:00 AM29 °FChilly.No wind97%29.90 "Hg13 mi
5:00 AM30 °FChilly.1 mph96%29.90 "Hg11 mi
4:00 AM31 °FChilly.1 mph93%29.90 "Hg19 mi
3:00 AM32 °FChilly.1 mph91%29.89 "Hg19 mi
2:00 AM34 °FChilly.2 mph91%29.90 "Hg16 mi
1:00 AM36 °FChilly.3 mph81%29.89 "Hg28 mi
12:00 AM37 °FChilly.6 mph73%29.88 "Hg25 mi
11:00 PM
Sun, Apr 26
40 °FChilly.7 mph64%29.87 "Hg25 mi
10:00 PM41 °FQuite cool.7 mph56%29.86 "Hg28 mi
9:00 PM44 °FQuite cool.8 mph55%29.85 "Hg31 mi
8:00 PM49 °FCool.12 mph41%29.83 "Hg31 mi
7:00 PM52 °FCool.15 mph35%29.82 "Hg28 mi
Weather by CustomWeather, © 2015

See weather overviewHow to use our weather pages